RH
18 18 18 17 26 18 12 15 19 19 18 22 21 24 27 39 47 55 64 19 27 35 41 39 33 31 30 27 19 17 18 16 17 21 23 25 26 26 25 21 18 17 15 13 12 12 14 17 21
20 19 19 26 20 14 12 18 19 22 24 21 17 23 25 46 46 62 80 35 39 44 45 51 50 49 45 41 38 29 20 20 19 17 20 22 26 27 26 24 22 19 18 16 14 15 15 16 18
22 22 26 24 19 14 16 20 23 24 22 20 17 25 37 31 24 33 30 27 27 26 24 24 24 24 26 32 38 44 41 30 24 24 21 20 21 24 26 26 24 22 20 18 17 17 18 18 19
27 31 28 22 16 21 21 24 26 23 24 22 19 24 23 19 22 28 25 24 22 20 21 22 22 21 21 21 25 38 56 55 45 36 31 28 23 22 23 25 25 24 22 20 19 19 19 19 20
31 34 26 21 19 23 24 26 27 26 28 25 22 28 39 20 22 21 23 23 22 22 22 23 23 23 24 24 23 28 43 65 67 61 52 44 37 31 26 24 24 25 24 23 21 20 20 20 20
39 32 24 18 20 25 26 29 27 29 28 27 28 29 36 23 21 22 23 24 24 24 24 24 24 24 26 27 27 27 28 31 39 56 66 64 56 49 41 33 28 25 25 24 24 22 20 20 21
39 30 23 21 22 27 29 32 32 31 30 31 30 30 32 34 22 25 26 30 28 25 25 25 25 26 27 28 27 29 30 30 31 35 41 56 66 63 57 50 40 33 27 26 25 25 23 21 20
34 32 24 18 22 27 34 34 35 35 34 30 28 30 34 39 25 25 26 30 27 28 26 26 27 27 26 26 26 26 26 27 28 30 31 34 48 67 69 59 50 45 38 35 31 27 27 25 22
23 29 18 18 20 29 25 33 35 40 38 40 39 38 36 30 29 30 32 42 28 29 30 32 30 29 27 26 25 25 25 26 27 27 28 28 29 33 58 75 70 58 48 42 40 37 32 30 27
27 22 22 30 30 25 30 33 34 35 33 35 40 42 33 30 29 28 29 34 32 29 31 33 29 28 27 27 27 26 26 26 26 28 28 28 27 27 29 34 66 77 67 55 46 44 38 32 28
28 25 32 31 30 19 28 30 30 28 27 28 27 30 34 34 33 31 30 29 28 28 29 28 27 27 27 28 28 27 28 27 27 28 28 31 33 33 48 48 41 52 81 78 64 52 46 38 32
17 25 29 23 20 9 28 30 31 26 26 28 11 5 7 16 22 31 31 31 28 28 28 28 28 28 28 28 28 35 68 90 68 57 32 33 38 31 50 56 52 51 54 81 89 72 63 56 47
19 19 29 23 9 9 27 25 27 26 25 12 5 7 35 9 3 4 4 7 15 25 31 32 32 32 31 31 31 32 40 54 41 52 54 52 52 54 54 52 60 64 55 56 72 86 79 74 66
34 26 30 28 28 30 24 27 20 25 18 16 33 38 44 7 5 6 6 6 6 5 5 8 11 12 13 17 22 28 35 37 43 47 48 46 51 51 48 48 54 58 56 60 76 90 95 89 80
8 10 24 27 29 31 10 17 25 32 32 35 36 41 50 9 9 7 6 6 6 5 5 4 5 6 6 6 13 22 26 32 36 42 45 45 50 52 50 55 59 66 65 68 80 86 90 97 92
15 29 22 18 25 30 15 14 26 34 40 34 38 48 48 7 6 9 10 11 10 9 8 7 7 6 6 6 6 17 23 36 37 40 39 40 48 50 51 50 50 57 53 55 62 82 94 98 90
32 18 20 24 22 24 28 18 22 29 34 37 45 58 22 8 9 12 13 12 11 11 10 10 9 8 8 8 8 11 33 45 44 41 38 38 48 50 46 49 51 43 37 35 36 42 50 69 82
18 25 20 19 26 31 29 28 24 26 36 52 57 54 16 11 12 14 14 14 13 12 12 11 12 13 14 12 11 11 24 42 45 41 39 41 49 52 55 52 47 40 36 35 35 35 32 28 32
25 25 18 17 19 31 38 32 27 29 43 60 70 30 14 18 16 16 16 16 15 14 13 12 12 13 15 19 20 20 29 41 82 75 53 51 54 57 56 52 50 43 37 36 36 37 36 23 21
36 28 24 24 27 40 36 30 27 37 56 37 51 19 22 23 24 23 21 20 18 17 17 16 17 19 23 28 29 33 37 57 73 99 99 84 82 79 72 68 63 47 38 36 37 39 36 13 11
31 29 27 28 29 36 34 33 31 52 36 25 21 25 26 28 28 25 23 22 22 21 20 20 21 29 34 51 60 61 78 67 87 86 79 98 99 95 98 85 62 49 39 34 37 41 43 22 10
30 27 40 39 33 28 41 31 28 50 74 29 27 28 30 27 26 28 26 26 27 25 25 29 32 45 52 55 60 70 84 88 84 77 78 96 93 98 96 72 53 47 38 31 43 45 46 39 14
34 43 44 39 40 35 31 31 26 28 60 68 66 24 27 31 32 30 31 34 37 36 38 38 39 40 43 45 55 65 81 91 89 93 94 94 88 61 63 52 44 32 27 40 51 50 44 34 36
50 53 48 47 41 39 33 29 23 23 45 49 66 32 38 37 35 38 38 33 32 35 41 44 44 43 41 42 50 61 72 85 98 92 86 91 88 88 55 46 40 39 39 45 48 46 23 14 11
56 46 40 41 43 43 34 32 25 38 47 45 63 38 40 37 43 41 34 30 27 26 26 28 29 28 28 33 39 47 68 69 71 85 89 93 98 98 89 82 83 61 59 53 57 36 12 12 13
51 43 34 32 28 20 37 37 37 45 57 37 38 40 35 41 47 42 35 34 31 26 24 23 21 19 15 11 12 31 31 74 72 64 57 55 50 44 44 70 96 99 94 72 36 11 14 10 8
40 52 40 37 35 38 34 27 56 44 43 38 31 34 34 42 50 47 40 38 35 30 29 27 24 20 12 13 15 14 22 23 24 58 57 82 64 24 23 38 95 98 54 12 11 14 7 7 6
41 50 53 50 48 44 28 27 27 50 43 39 35 34 37 44 54 52 47 42 41 38 35 33 28 22 15 18 25 27 25 25 27 24 23 34 54 50 36 40 46 32 27 20 15 14 19 22 17
48 57 53 48 45 41 36 30 60 58 46 43 38 32 35 45 56 59 57 47 48 45 42 43 37 28 19 28 36 40 38 34 37 42 44 51 54 72 68 76 75 70 64 58 50 46 44 44 42
39 49 51 57 52 47 46 47 50 62 69 79 44 43 40 47 55 63 64 56 53 54 54 56 48 31 26 39 42 48 54 57 70 86 90 93 95 89 87 85 83 78 72 74 73 76 74 69 68
Wind_Speed
7 5 6 4 4 7 12 6 4 3 4 3 3 3 1 4 7 4 1 4 4 2 2 4 5 6 6 7 8 8 7 6 6 4 3 3 5 7 8 9 10 11 11 10 8 6 5 4 4
6 5 4 3 9 17 8 6 5 4 2 1 2 5 4 4 8 5 1 5 5 4 3 3 4 5 6 7 9 10 10 10 9 8 7 6 5 5 6 6 7 7 7 7 6 5 4 4 4
5 5 3 10 15 14 5 8 5 2 3 3 3 2 4 6 5 7 7 5 4 4 2 1 2 4 6 8 10 11 12 12 13 12 10 10 9 9 7 6 5 4 4 4 4 3 2 3 3
4 3 6 8 14 4 2 6 5 2 2 2 5 2 3 6 7 9 8 7 6 4 4 3 4 5 6 7 8 11 13 14 15 15 15 13 13 13 12 11 9 6 4 3 2 1 2 3 3
2 4 10 12 8 4 5 5 5 4 4 1 3 3 5 10 11 11 12 11 9 7 5 5 4 4 4 5 6 9 11 14 15 17 17 17 16 16 15 15 14 12 9 7 5 4 3 2 1
4 5 10 13 10 7 6 5 6 3 2 2 2 4 4 12 16 16 16 15 13 12 11 10 9 8 8 6 6 7 9 11 13 16 18 19 19 19 19 18 18 18 16 12 10 9 7 6 4
6 10 12 9 5 7 7 5 5 4 4 7 6 5 5 11 19 20 18 18 19 17 15 15 14 13 13 12 11 10 10 12 14 16 18 20 22 22 22 22 22 21 20 18 16 14 12 10 9
9 8 10 7 6 7 6 5 5 3 8 17 10 6 7 21 14 16 19 19 21 18 19 18 17 16 16 15 14 12 11 11 12 15 17 19 22 25 26 26 26 25 24 22 21 20 17 15 14
8 7 11 5 6 5 7 4 5 5 5 6 7 7 22 22 15 16 15 11 23 21 21 20 19 18 18 18 19 18 17 15 14 13 14 14 17 23 27 29 30 29 27 27 26 24 23 21 20
8 9 6 5 6 6 3 6 8 4 6 8 6 10 26 22 23 23 22 20 26 26 23 24 24 23 23 22 24 24 24 22 20 18 18 19 20 20 23 28 30 32 31 30 30 28 27 27 25
7 10 8 9 9 10 8 8 9 7 8 8 17 21 23 21 26 30 30 32 35 32 31 33 30 29 28 27 28 29 28 28 27 25 25 25 23 21 23 26 29 31 33 35 34 32 32 31 28
10 11 10 8 12 11 9 11 12 11 12 15 20 20 20 22 29 34 34 37 39 37 39 38 36 34 34 33 33 31 27 24 28 30 25 27 25 23 23 24 26 29 32 35 37 35 33 32 31
13 12 13 13 16 15 13 14 14 11 16 15 15 14 9 23 30 30 32 35 34 36 40 41 40 39 40 40 40 39 39 35 35 34 31 29 29 25 24 24 25 27 30 33 37 37 36 35 34
14 15 14 13 13 13 14 9 14 10 16 10 9 7 15 25 26 25 26 29 30 32 35 35 38 38 39 40 41 40 40 41 39 36 35 35 32 31 29 27 27 28 29 31 35 38 38 39 38
19 16 13 13 11 10 16 15 14 12 10 6 7 10 21 24 22 26 27 28 30 32 34 35 36 35 34 35 36 35 34 37 39 39 38 37 36 35 32 30 29 28 28 31 32 34 37 39 41
12 12 13 14 15 11 10 10 12 11 9 11 12 12 25 28 28 27 26 26 26 27 28 29 29 29 30 30 33 35 37 37 38 41 40 40 38 37 32 28 27 28 27 26 27 33 33 34 41
15 15 14 11 17 11 10 9 10 11 13 14 13 12 30 32 28 26 25 24 25 26 26 27 28 28 29 28 28 32 34 37 39 42 42 41 39 37 31 28 28 26 22 22 23 26 32 43 43
14 14 13 14 12 11 13 19 18 20 15 16 12 19 27 28 26 24 25 26 26 26 26 26 25 25 26 27 27 30 33 36 40 44 45 43 40 38 35 33 31 27 26 24 25 28 31 34 37
16 15 17 18 16 16 20 19 17 18 19 13 11 21 24 23 26 26 25 27 27 26 27 28 27 26 25 24 26 29 32 34 34 35 41 44 41 40 39 36 35 31 30 29 28 29 31 34 36
17 17 19 19 18 18 20 21 20 19 17 20 18 21 17 21 22 24 27 25 26 28 29 30 29 28 27 26 26 27 31 33 36 32 34 42 41 40 39 39 38 36 33 33 30 31 32 33 34
19 20 19 18 16 20 24 26 28 21 25 15 16 20 21 19 21 21 23 27 29 29 30 31 30 28 26 24 24 24 27 29 33 37 39 36 37 40 38 37 39 37 36 35 31 31 34 34 32
20 20 16 15 15 15 5 13 6 17 14 11 17 19 19 16 18 21 25 25 26 25 25 25 26 26 25 24 25 24 25 25 28 30 34 37 36 37 41 37 38 38 38 34 33 34 36 38 36
19 13 12 12 14 17 21 20 21 15 19 14 12 12 14 16 21 20 19 19 16 13 11 12 14 17 18 23 24 24 24 27 30 32 34 33 37 33 35 36 37 37 37 35 34 37 39 39 40
10 10 10 11 14 17 24 26 18 19 18 14 12 12 15 14 15 16 13 10 9 9 10 11 13 15 17 19 20 21 25 29 33 35 36 37 37 40 38 37 39 41 40 37 36 39 39 38 39
17 12 8 13 11 11 6 10 20 8 12 10 13 14 14 13 15 14 11 10 10 11 14 16 18 19 21 22 23 22 22 21 24 29 34 37 42 42 41 49 51 50 41 41 46 41 40 39 39
23 20 13 10 10 11 4 8 6 10 12 13 17 15 14 14 15 14 12 11 12 13 16 18 21 23 25 24 23 23 22 23 22 22 21 23 25 27 27 38 44 54 49 41 39 40 41 42 41
17 24 20 23 24 17 21 23 8 20 20 9 10 13 15 16 17 16 14 13 13 15 16 18 21 24 25 25 25 24 25 25 24 25 24 25 25 27 27 25 28 33 29 34 36 38 41 40 39
20 10 12 15 7 17 20 23 19 18 16 8 9 12 15 18 19 19 17 15 15 16 18 20 22 25 25 24 24 24 23 25 24 24 24 24 27 28 24 23 22 23 25 27 29 32 33 33 34
22 21 19 16 25 12 14 18 4 8 10 9 12 13 14 19 21 22 21 19 18 18 20 22 24 25 25 24 22 22 23 22 21 19 19 18 18 19 16 15 15 12 14 17 20 23 25 27 29
26 27 26 25 24 24 26 30 9 7 8 11 14 23 20 20 26 25 24 23 21 20 22 23 24 25 24 23 22 22 21 20 17 15 14 12 11 11 6 6 8 9 9 10 12 15 18 20 23
Wind_Direction
277 274 289 319 260 244 242 206 205 258 198 265 296 171 117 51 26 77 164 205 174 164 190 220 239 243 253 263 267 268 269 267 268 278 304 346 1 10 21 30 36 39 39 38 35 23 360 337 320
265 263 268 231 254 249 200 169 184 220 217 29 82 92 106 73 101 102 223 142 136 131 147 193 228 248 255 262 267 268 269 271 273 270 275 286 298 318 339 358 20 30 40 50 51 40 15 346 325
242 234 235 257 252 269 21 168 192 252 171 138 135 118 158 201 177 161 153 152 146 139 150 176 234 252 257 263 266 268 270 270 274 275 273 274 278 282 288 301 320 349 12 29 48 51 28 356 333
232 283 268 245 261 241 346 197 195 218 189 143 180 164 215 193 182 177 174 173 180 187 203 223 233 232 236 248 257 262 268 272 274 277 277 275 274 277 280 280 283 292 309 330 352 9 359 6 359
218 246 250 251 253 243 217 205 174 205 208 241 169 195 168 202 199 201 201 201 202 210 222 241 250 242 224 219 226 240 251 260 266 270 273 274 274 273 273 274 275 276 276 282 283 269 274 294 323
224 243 244 248 179 205 210 222 202 225 258 277 215 175 212 218 215 211 213 217 219 223 224 228 234 235 232 242 248 250 248 251 257 260 262 265 268 269 268 268 268 269 268 265 264 264 258 260 261
225 242 261 284 255 221 216 203 212 221 256 248 229 187 205 259 220 219 224 225 226 228 231 238 238 241 243 245 252 256 264 266 263 260 260 261 261 262 263 263 262 262 264 263 259 258 257 256 258
199 242 253 232 220 172 212 208 225 212 219 234 229 224 211 253 241 231 237 240 242 244 241 242 245 250 256 254 256 256 267 284 281 273 271 269 267 264 263 262 262 261 261 262 262 261 258 256 256
220 222 242 212 213 182 237 180 252 244 245 274 248 237 236 243 250 241 249 261 253 247 246 247 254 262 267 274 277 273 273 277 275 271 271 274 278 273 268 264 261 259 260 260 258 258 260 258 256
192 234 290 190 191 208 218 206 251 254 247 270 247 254 260 263 260 257 255 255 258 254 253 252 254 262 269 272 275 276 278 278 276 272 271 271 275 278 272 267 265 263 258 256 256 256 258 259 259
226 214 256 262 228 215 232 261 269 260 256 242 246 248 260 264 257 256 251 254 257 259 257 262 266 266 265 266 268 271 272 273 273 273 274 276 273 271 270 267 266 264 263 260 257 256 258 259 261
236 244 245 247 259 239 241 256 259 256 259 251 263 255 261 262 259 257 257 259 262 263 264 263 264 265 268 271 269 270 268 271 274 272 270 272 270 268 266 262 261 262 265 263 262 259 257 258 260
245 242 257 242 261 265 262 263 264 253 252 266 258 269 284 256 258 264 266 265 265 263 263 266 267 265 266 265 266 265 264 259 264 269 271 266 267 265 264 265 264 261 260 261 264 262 260 257 254
245 229 253 260 265 266 269 277 259 245 257 257 269 276 271 263 268 270 272 274 276 274 272 270 269 269 266 264 262 260 259 260 261 262 264 269 264 262 259 257 260 261 260 259 258 261 262 261 257
252 263 269 257 254 251 282 281 240 225 247 268 278 277 267 277 278 280 279 277 274 274 273 272 271 275 274 268 264 263 263 257 256 257 258 262 263 261 260 259 259 255 251 255 258 258 259 258 260
256 256 259 228 247 249 269 264 226 241 237 271 272 276 273 284 289 287 284 281 279 277 277 276 276 274 272 271 265 262 262 262 259 256 258 260 260 262 264 263 256 252 249 252 254 255 253 259 253
240 249 231 234 248 234 246 246 248 262 268 269 272 264 275 289 289 288 287 285 283 282 280 280 278 275 272 268 264 258 256 254 255 255 256 259 259 258 258 262 254 253 258 258 263 263 261 255 258
257 222 241 243 234 245 249 261 267 264 268 263 267 261 279 285 288 287 289 292 292 290 288 285 281 279 276 269 260 255 253 253 253 253 254 255 256 254 256 257 254 252 255 262 269 273 269 266 263
257 258 253 257 251 267 266 271 258 259 248 264 253 266 278 284 288 290 292 294 293 293 292 290 289 285 279 274 264 254 249 248 255 259 255 255 256 257 258 259 258 258 259 263 272 280 280 272 268
239 249 255 263 258 258 269 267 260 248 246 260 251 270 272 284 286 289 296 294 293 295 294 292 288 286 284 282 274 262 250 252 248 255 260 259 255 256 259 257 255 256 257 263 270 281 283 277 272
244 246 253 259 257 268 276 277 270 227 251 265 260 255 276 278 285 292 293 295 296 295 292 290 289 286 287 282 282 280 264 265 260 260 264 269 264 259 255 254 256 258 259 262 268 275 282 278 274
250 257 242 246 253 265 201 279 262 236 223 251 260 261 277 279 288 290 292 290 289 290 288 285 288 284 282 289 288 284 273 267 271 265 271 263 268 269 262 254 256 257 259 261 270 273 283 281 277
247 233 232 245 246 263 262 268 278 247 216 228 229 261 270 283 288 283 283 282 284 290 302 309 309 307 298 297 286 276 272 273 272 272 272 271 269 266 264 260 258 256 260 266 273 277 282 278 280
220 225 228 240 255 257 258 245 275 242 220 225 213 270 277 279 269 269 266 271 292 307 317 320 323 326 326 323 314 298 283 276 270 270 273 269 270 267 264 262 259 258 260 264 271 279 281 278 277
204 203 234 222 212 247 229 251 244 250 187 207 235 280 282 274 259 257 269 285 300 312 320 323 324 324 322 321 324 324 311 306 295 282 275 271 270 269 271 263 264 256 259 261 265 279 280 277 277
214 215 226 248 247 275 175 238 246 192 210 244 283 273 286 266 258 262 270 289 302 311 317 321 323 322 322 319 314 311 314 306 304 303 300 291 284 278 280 273 265 261 251 260 274 277 280 278 276
219 223 239 266 269 272 253 258 271 241 247 259 265 276 282 254 253 257 269 282 293 300 307 313 316 318 320 320 317 309 304 303 302 295 293 292 296 289 285 296 279 258 265 274 274 276 276 277 275
220 231 218 222 255 244 256 256 270 230 193 239 288 289 273 251 248 253 266 271 282 291 300 307 313 318 321 319 317 315 310 302 299 297 295 288 287 287 292 283 280 274 273 273 275 273 276 278 277
207 222 223 239 240 261 271 270 277 237 241 257 289 292 287 262 250 253 262 264 278 286 294 305 313 320 321 318 316 317 317 312 302 295 296 300 302 296 292 288 279 278 280 282 278 278 280 278 276
232 231 231 226 240 252 263 267 270 271 265 248 280 290 306 271 253 252 259 261 271 283 293 304 313 321 320 316 314 317 317 315 309 309 302 299 299 295 308 349 1 2 349 335 320 307 294 287 281